Tracking 19246 objects as of 21-Sep-2018
HD Live streaming from Space Station
objects crossing your sky now

FENGYUN 1C DEB

Track FENGYUN 1C DEB now!
10-day predictions


NORAD ID: 31931
Int'l Code: 1999-025CMG
Perigee: 795.9 km
Apogee: 1,444.3 km
Inclination: 97.8 °
Period: 107.5 minutes
Semi major axis: 7491 km
RCS: 0.0158 m2 (small)
Launch date: May 10, 1999
Source: People's Republic of China (PRC)
Launch site: Taiyaun Space Center, China (TSC)

Note: This is SATELLITE DEBRIS
aabbcc
Your satellite tracking list
Your tracking list is empty




NASA's NSSDC Master Catalog

Two Line Element Set (TLE):
1 31931U 99025CMG 18259.22522940 +.00000318 +00000-0 +37976-3 0  9990
2 31931 097.8051 049.2570 0432766 276.6788 078.5285 13.39014722298026
Source of the keplerian elements: AFSPC